TimeCST,TemperatureF,Dew PointF,Humidity,Sea Level PressureIn,VisibilityMPH,Wind Direction,Wind SpeedMPH,Gust SpeedMPH,PrecipitationIn,Events,Conditions,WindDirDegrees,DateUTC
12:53 AM,48.9,44.1,83,30.25,10.0,Calm,Calm,-,N/A,,Overcast,0,2012-11-16 06:53:00
1:38 AM,50.0,44.6,82,30.25,10.0,Calm,Calm,-,N/A,,Overcast,0,2012-11-16 07:38:00
1:53 AM,50.0,44.1,80,30.25,10.0,Calm,Calm,-,N/A,,Overcast,0,2012-11-16 07:53:00
2:53 AM,50.0,44.1,80,30.24,10.0,Variable,3.5,-,N/A,,Overcast,0,2012-11-16 08:53:00
3:11 AM,50.0,44.6,82,30.24,10.0,Calm,Calm,-,N/A,,Overcast,0,2012-11-16 09:11:00
3:53 AM,50.0,44.1,80,30.24,10.0,NE,4.6,-,N/A,,Overcast,40,2012-11-16 09:53:00
4:53 AM,48.9,44.1,83,30.23,10.0,NE,6.9,-,N/A,,Overcast,50,2012-11-16 10:53:00
5:14 AM,48.2,44.6,87,30.24,10.0,NNE,6.9,-,N/A,,Overcast,30,2012-11-16 11:14:00
5:53 AM,48.9,44.1,83,30.25,10.0,ENE,4.6,-,N/A,,Overcast,70,2012-11-16 11:53:00
6:53 AM,48.0,43.0,83,30.27,10.0,ENE,6.9,-,N/A,,Overcast,70,2012-11-16 12:53:00
7:53 AM,48.0,44.1,86,30.29,8.0,ENE,4.6,-,N/A,,Overcast,60,2012-11-16 13:53:00
8:53 AM,50.0,44.1,80,30.30,10.0,NE,8.1,-,N/A,,Overcast,50,2012-11-16 14:53:00
9:51 AM,50.0,44.6,82,30.30,10.0,NE,5.8,-,N/A,,Overcast,40,2012-11-16 15:51:00
9:53 AM,50.0,44.1,80,30.30,10.0,NNE,4.6,-,N/A,,Overcast,30,2012-11-16 15:53:00
10:53 AM,52.0,45.0,77,30.29,10.0,NNE,8.1,-,N/A,,Overcast,30,2012-11-16 16:53:00
11:53 AM,52.0,45.0,77,30.27,10.0,NE,8.1,-,N/A,,Overcast,40,2012-11-16 17:53:00
12:53 PM,54.0,46.0,75,30.25,10.0,North,5.8,-,N/A,,Overcast,360,2012-11-16 18:53:00
1:07 PM,53.6,46.4,77,30.25,10.0,NE,6.9,-,N/A,,Overcast,40,2012-11-16 19:07:00
1:53 PM,55.9,46.9,72,30.24,10.0,NE,5.8,-,N/A,,Overcast,50,2012-11-16 19:53:00
2:53 PM,57.9,46.9,67,30.23,10.0,Variable,4.6,-,N/A,,Mostly Cloudy,0,2012-11-16 20:53:00
3:32 PM,59.0,46.4,63,30.23,10.0,Calm,Calm,-,N/A,,Partly Cloudy,0,2012-11-16 21:32:00
3:53 PM,59.0,46.9,64,30.23,10.0,Calm,Calm,-,N/A,,Clear,0,2012-11-16 21:53:00
4:53 PM,52.0,46.9,83,30.22,10.0,Calm,Calm,-,N/A,,Clear,0,2012-11-16 22:53:00
5:53 PM,48.0,46.0,93,30.24,8.0,Calm,Calm,-,N/A,,Clear,0,2012-11-16 23:53:00
6:22 PM,46.4,44.6,93,30.25,0.8,Calm,Calm,-,N/A,,Clear,0,2012-11-17 00:22:00
6:31 PM,46.4,42.8,87,30.25,2.0,Calm,Calm,-,N/A,,Clear,0,2012-11-17 00:31:00
6:38 PM,46.4,42.8,87,30.25,5.0,Calm,Calm,-,N/A,,Clear,0,2012-11-17 00:38:00
6:53 PM,44.1,42.1,93,30.25,5.0,Calm,Calm,-,N/A,,Clear,0,2012-11-17 00:53:00
7:06 PM,44.6,42.8,93,30.26,1.8,Calm,Calm,-,N/A,,Clear,0,2012-11-17 01:06:00
7:11 PM,44.6,42.8,93,30.26,3.0,Calm,Calm,-,N/A,,Clear,0,2012-11-17 01:11:00
7:53 PM,42.1,39.9,92,30.27,6.0,East,3.5,-,N/A,,Clear,80,2012-11-17 01:53:00
8:53 PM,41.0,39.0,93,30.28,4.0,Calm,Calm,-,N/A,,Clear,0,2012-11-17 02:53:00
9:53 PM,41.0,39.0,93,30.29,6.0,Calm,Calm,-,N/A,,Clear,0,2012-11-17 03:53:00
10:53 PM,39.0,37.0,93,30.29,7.0,Calm,Calm,-,N/A,,Clear,0,2012-11-17 04:53:00
11:53 PM,39.0,37.0,93,30.29,6.0,Calm,Calm,-,N/A,,Clear,0,2012-11-17 05:53:00